• In Norway
  • List of Countries
  • For 7 days
  • Water Temperature
  • Satellite Maps
  • Weather Map
  • Weather Widgets
  • user-avatar
    Login

    Hourly Weather Olginka

    Today, 25 September, Tuesday

    Time Temperature Precipitation Wind Pressure Humidity
    00:00 +10°C° 0.2 mm 8 mps 729 mmHg 86%
    01:00 +9°C° 0 mm 8 mps 729 mmHg 86%
    02:00 +8°C° 0 mm 7 mps 729 mmHg 85%
    03:00 +8°C° 0 mm 5 mps 729 mmHg 85%
    04:00 +7°C° 0 mm 6 mps 729 mmHg 84%
    05:00 +7°C° 0 mm 6 mps 729 mmHg 84%
    06:00 +7°C° 0 mm 6 mps 730 mmHg 83%
    07:00 +6°C° 0 mm 7 mps 730 mmHg 82%
    08:00 +6°C° 0 mm 7 mps 730 mmHg 82%
    09:00 +6°C° 0 mm 7 mps 730 mmHg 80%
    10:00 +8°C° 0.1 mm 7 mps 731 mmHg 78%
    11:00 +8°C° 0.1 mm 7 mps 731 mmHg 76%
    12:00 +7°C° 0.1 mm 8 mps 732 mmHg 74%
    13:00 +8°C° 0.1 mm 7 mps 733 mmHg 73%
    14:00 +8°C° 0.1 mm 7 mps 734 mmHg 71%
    15:00 +8°C° 0.1 mm 7 mps 734 mmHg 70%
    16:00 +8°C° 0 mm 7 mps 735 mmHg 71%
    17:00 +7°C° 0 mm 6 mps 736 mmHg 71%
    18:00 +7°C° 0 mm 6 mps 736 mmHg 72%
    19:00 +5°C° 0 mm 6 mps 737 mmHg 73%
    20:00 +6°C° 0 mm 5 mps 737 mmHg 74%
    21:00 +5°C° 0 mm 5 mps 738 mmHg 75%
    22:00 +5°C° 0 mm 5 mps 739 mmHg 75%
    23:00 +5°C° 0 mm 5 mps 739 mmHg 76%

    Tomorrow, 26 September, Wednesday

    Time Temperature Precipitation Wind Pressure Humidity
    00:00 +5°C° 0 mm 4 mps 740 mmHg 76%
    01:00 +5°C° 0 mm 4 mps 740 mmHg 78%
    02:00 +4°C° 0 mm 4 mps 741 mmHg 81%
    03:00 +4°C° 0 mm 4 mps 741 mmHg 83%
    04:00 +3°C° 0 mm 4 mps 742 mmHg 84%
    05:00 +3°C° 0 mm 4 mps 742 mmHg 85%
    06:00 +3°C° 0 mm 4 mps 743 mmHg 86%
    07:00 +3°C° 0 mm 4 mps 743 mmHg 82%
    08:00 +3°C° 0 mm 5 mps 744 mmHg 79%
    09:00 +5°C° 0 mm 5 mps 745 mmHg 75%
    10:00 +6°C° 0 mm 5 mps 745 mmHg 69%
    11:00 +7°C° 0 mm 5 mps 745 mmHg 63%
    12:00 +8°C° 0 mm 5 mps 745 mmHg 58%
    13:00 +8°C° 0 mm 5 mps 745 mmHg 56%
    14:00 +8°C° 0 mm 5 mps 745 mmHg 54%
    15:00 +9°C° 0 mm 5 mps 745 mmHg 52%
    16:00 +8°C° 0 mm 4 mps 745 mmHg 55%
    17:00 +8°C° 0 mm 3 mps 745 mmHg 58%
    18:00 +7°C° 0 mm 3 mps 745 mmHg 62%
    19:00 +7°C° 0 mm 3 mps 745 mmHg 63%
    20:00 +5°C° 0 mm 4 mps 745 mmHg 65%
    21:00 +5°C° 0 mm 4 mps 745 mmHg 67%
    22:00 +5°C° 0 mm 5 mps 744 mmHg 68%
    23:00 +5°C° 0 mm 5 mps 744 mmHg 68%

    Day after tomorrow, 27 September, Thursday

    Time Temperature Precipitation Wind Pressure Humidity
    00:00 +4°C° 0 mm 6 mps 743 mmHg 69%
    01:00 +4°C° 0 mm 7 mps 742 mmHg 67%
    02:00 +5°C° 0 mm 7 mps 742 mmHg 64%
    03:00 +5°C° 0 mm 8 mps 741 mmHg 61%
    04:00 +5°C° 0.5 mm 9 mps 740 mmHg 65%
    05:00 +3°C° 0.5 mm 9 mps 738 mmHg 69%
    06:00 +3°C° 0.5 mm 10 mps 737 mmHg 72%
    07:00 +3°C° 0.6 mm 11 mps 737 mmHg 75%
    08:00 +3°C° 0.6 mm 11 mps 736 mmHg 78%
    09:00 +3°C° 0.6 mm 11 mps 735 mmHg 80%
    10:00 +4°C° 0.4 mm 11 mps 735 mmHg 82%
    11:00 +5°C° 0.4 mm 10 mps 734 mmHg 83%
    12:00 +6°C° 0.4 mm 10 mps 734 mmHg 84%
    13:00 +6°C° 0.3 mm 9 mps 734 mmHg 85%
    14:00 +7°C° 0.3 mm 9 mps 734 mmHg 85%
    15:00 +7°C° 0.3 mm 9 mps 733 mmHg 86%
    16:00 +7°C° 0.1 mm 8 mps 734 mmHg 85%
    17:00 +8°C° 0.1 mm 7 mps 734 mmHg 83%
    18:00 +9°C° 0.1 mm 7 mps 734 mmHg 82%
    19:00 +8°C° 0 mm 6 mps 735 mmHg 82%
    20:00 +7°C° 0 mm 5 mps 736 mmHg 83%
    21:00 +7°C° 0 mm 5 mps 736 mmHg 83%
    22:00 +6°C° 0 mm 5 mps 736 mmHg 84%
    23:00 +6°C° 0 mm 5 mps 737 mmHg 85%

    28 September, Friday

    Time Temperature Precipitation Wind Pressure Humidity
    00:00 +6°C° 0 mm 5 mps 737 mmHg 87%
    01:00 +5°C° 0 mm 5 mps 737 mmHg 88%
    02:00 +5°C° 0 mm 5 mps 737 mmHg 89%
    03:00 +5°C° 0 mm 5 mps 738 mmHg 90%
    04:00 +5°C° 0 mm 4 mps 738 mmHg 91%
    05:00 +4°C° 0 mm 4 mps 738 mmHg 92%
    06:00 +4°C° 0 mm 4 mps 738 mmHg 94%
    07:00 +5°C° 0 mm 5 mps 738 mmHg 88%
    08:00 +6°C° 0 mm 5 mps 737 mmHg 82%
    09:00 +8°C° 0 mm 6 mps 737 mmHg 76%
    10:00 +9°C° 0 mm 7 mps 737 mmHg 72%
    11:00 +10°C° 0 mm 8 mps 736 mmHg 68%
    12:00 +12°C° 0 mm 9 mps 735 mmHg 64%
    13:00 +12°C° 0 mm 9 mps 735 mmHg 66%
    14:00 +13°C° 0 mm 10 mps 734 mmHg 69%
    15:00 +13°C° 0 mm 10 mps 733 mmHg 72%
    16:00 +13°C° 0.1 mm 9 mps 733 mmHg 74%
    17:00 +13°C° 0.1 mm 9 mps 732 mmHg 76%
    18:00 +13°C° 0.1 mm 9 mps 732 mmHg 78%
    19:00 +13°C° 0.6 mm 9 mps 732 mmHg 79%
    20:00 +12°C° 0.6 mm 9 mps 732 mmHg 80%
    21:00 +12°C° 0.6 mm 9 mps 733 mmHg 80%
    22:00 +10°C° 0.1 mm 8 mps 734 mmHg 81%
    23:00 +8°C° 0.1 mm 7 mps 735 mmHg 82%

    29 September, Saturday

    Time Temperature Precipitation Wind Pressure Humidity
    00:00 +5°C° 0.1 mm 6 mps 736 mmHg 82%
    01:00 +5°C° 0 mm 5 mps 737 mmHg 84%
    02:00 +4°C° 0 mm 4 mps 738 mmHg 86%
    03:00 +3°C° 0 mm 3 mps 738 mmHg 87%
    04:00 +4°C° 0 mm 2 mps 739 mmHg 88%
    05:00 +3°C° 0 mm 2 mps 739 mmHg 89%
    06:00 +3°C° 0 mm 2 mps 740 mmHg 90%
    07:00 +4°C° 0 mm 2 mps 740 mmHg 84%
    08:00 +5°C° 0 mm 2 mps 741 mmHg 78%
    09:00 +5°C° 0 mm 2 mps 742 mmHg 72%
    10:00 +7°C° 0 mm 2 mps 742 mmHg 65%
    11:00 +8°C° 0 mm 2 mps 742 mmHg 59%
    12:00 +9°C° 0 mm 2 mps 742 mmHg 52%
    13:00 +9°C° 0 mm 2 mps 742 mmHg 51%
    14:00 +9°C° 0 mm 2 mps 742 mmHg 51%
    15:00 +9°C° 0 mm 2 mps 742 mmHg 51%
    16:00 +9°C° 0 mm 2 mps 743 mmHg 55%
    17:00 +8°C° 0 mm 2 mps 743 mmHg 59%
    18:00 +9°C° 0 mm 1 mps 743 mmHg 64%
    19:00 +7°C° 0 mm 2 mps 744 mmHg 66%
    20:00 +6°C° 0 mm 2 mps 744 mmHg 69%
    21:00 +6°C° 0 mm 2 mps 745 mmHg 71%
    22:00 +5°C° 0 mm 2 mps 745 mmHg 73%
    23:00 +5°C° 0 mm 2 mps 746 mmHg 75%

    30 September, Sunday

    Time Temperature Precipitation Wind Pressure Humidity
    00:00 +4°C° 0 mm 2 mps 746 mmHg 76%
    01:00 +4°C° 0 mm 2 mps 746 mmHg 76%
    02:00 +3°C° 0 mm 2 mps 747 mmHg 75%
    03:00 +3°C° 0 mm 2 mps 747 mmHg 75%
    04:00 +2°C° 0 mm 2 mps 747 mmHg 74%
    05:00 +2°C° 0 mm 2 mps 748 mmHg 73%
    06:00 +3°C° 0 mm 1 mps 748 mmHg 72%
    07:00 +4°C° 0 mm 1 mps 748 mmHg 67%
    08:00 +5°C° 0 mm 1 mps 748 mmHg 63%
    09:00 +6°C° 0 mm 1 mps 749 mmHg 59%
    10:00 +7°C° 0 mm 1 mps 749 mmHg 56%
    11:00 +8°C° 0 mm 1 mps 749 mmHg 53%
    12:00 +9°C° 0 mm 1 mps 749 mmHg 51%
    13:00 +9°C° 0 mm 2 mps 749 mmHg 49%
    14:00 +9°C° 0 mm 2 mps 748 mmHg 48%
    15:00 +9°C° 0 mm 3 mps 748 mmHg 47%
    16:00 +9°C° 0 mm 2 mps 748 mmHg 52%
    17:00 +8°C° 0 mm 2 mps 748 mmHg 56%
    18:00 +7°C° 0 mm 2 mps 748 mmHg 60%
    19:00 +6°C° 0 mm 2 mps 748 mmHg 61%
    20:00 +6°C° 0 mm 2 mps 748 mmHg 62%
    21:00 +5°C° 0 mm 2 mps 748 mmHg 63%
    22:00 +5°C° 0 mm 2 mps 748 mmHg 64%
    23:00 +4°C° 0 mm 2 mps 748 mmHg 65%
    Show more